www.pogodaiklimat.ru

Погода и климат >> Архив погоды >> Россия >> Свердловская область >> Екатеринбург


АРХИВ ПОГОДЫ в Екатеринбурге

Время (UTC), дата Ветер
(напр.,м/с)
 
Видим.   Явления Облачность Т
(С)
Тd
(С)
f
(%)
Тe
(С)
Тes
(С)
Комфортность P
(гПа)
Po
(гПа)
Тmin
(С)
Tmax
(С)
R
(мм)
R24
(мм)
S
(см)
03 19.03 ЮВ 2 20 км 8/0
[Cs]
-6.1 -11.7 65 -10 -10 по сезону 1030.5 994.3 -6.2 39
06 19.03 Ю 2 50 км 4/0
[Cs]
0.0 -10.1 47 -3 +2 по сезону 1029.7 994.3
09 19.03 ЮВ 3 50 км 3/0
[Ci fib]
+3.5 -10.1 36 +1 +6 тепло 1028.5 993.6
12 19.03 ЮВ 3 50 км 3/0
[Ci fib]
+4.0 -11.4 32 +1 +3 по сезону 1028.0 993.2
15 19.03 ЮВ 2 10 км 3/0
[Ci fib]
-0.6 -10.1 49 -4 -4 по сезону 1028.8 993.4 +4.2
18 19.03 ЮВ 2 10 км ясно -3.5 -10.7 57 -7 -7 по сезону 1028.8 993.0
21 19.03 Ю 2 10 км ясно -6.3 -10.7 71 -10 -10 по сезону 1028.3 992.2
00 20.03 ЮВ 2 10 км ясно -7.9 -10.8 80 -12 -12 по сезону 1027.6 991.3
03 20.03 ЮВ 1 10 км 3/0
[Cs]
-8.3 -10.7 83 -11 -10 по сезону 1027.0 990.6 -8.9 38
06 20.03 Ю 1 10 км 4/0
[Ci fib]
+2.2 -9.2 43 +1 +7 тепло 1024.7 989.8
09 20.03 Ю 2 10 км 8/0
[Cs]
+8.7 -11.5 23 +8 +13 тепло 1022.4 988.3
12 20.03 Ю 1 20 км 10/0
[Cs]
+10.1 -11.2 21 +11 +12 тепло 1020.6 986.8
15 20.03 ЮЗ 2 10 км 10/0
[Cs]
+5.8 -13.4 24 +4 +4 тепло 1020.9 986.5 +10.3
18 20.03 ЮЗ 1 10 км 10/0
[Cs]
+3.0 -13.7 28 +3 +3 тепло 1020.7 986.0
21 20.03 ЮЗ 1 10 км 10/0
[Cs]
+1.1 -11.3 39 0 0 тепло 1020.1 985.2
00 21.03 Ю 1 10 км 10/0
[Cs]
+0.6 -7.4 55 -1 -1 тепло 1019.2 984.3
03 21.03 ЮВ 1 20 км 10/3 600 м
[Sc Ac und Cc]
-0.3 -6.7 62 -2 -2 тепло 1018.5 983.5 -1.1 36
06 21.03 Ю 1 20 км 9/4 600 м
[Sc Ac trans Cs]
+5.6 -5.2 46 +5 +7 тепло 1017.0 982.8
09 21.03 З 4 20 км 10/6 600 м
[Sc Cs]
+4.6 -1.4 65 +1 +2 тепло 1016.9 982.5
12 21.03 СЗ 4 50 км 8/8 600 м
[Sc]
+3.9 -1.7 67 -0 0 по сезону 1017.5 983.0
15 21.03 З 2 10 км {ливн. осадки} 9/9 600 м
[Sc]
+2.9 -2.0 70 0 0 по сезону 1018.0 983.4 +6.4 0.0
18 21.03 СЗ 2 10 км {ливн. осадки} 8/8 600 м
[Sc]
+2.4 -1.7 74 -1 -1 тепло 1018.4 983.8
21 21.03 СЗ 2 10 км 8/8 600 м
[Sc]
+1.8 -1.6 78 -1 -1 тепло 1018.1 983.4
00 22.03 Ю 1 10 км слаб. снег 10/0
[As op]
+0.7 -1.4 86 -1 -1 тепло 1018.0 983.1
03 22.03 штиль 0 2000 м слаб. снег {морось} 10/0 300 м
[As op]
+0.7 -0.7 90 -1 -0 тепло 1017.5 982.7 +0.3 0.4 31
06 22.03 Ю 2 10 км слаб. дождь 10/0
[As op]
+2.4 -0.6 81 -1 0 по сезону 1016.7 982.1
09 22.03 ЮВ 2 50 км слаб. ливневой дождь 10/10 600 м
[Cb cap]
+5.5 -1.7 60 +3 +3 тепло 1015.1 981.0
12 22.03 В 1 20 км {ливн. осадки, дождь} 8/8 600 м
[Cb calv Cc]
+6.4 -1.7 56 +6 +6 тепло 1014.0 980.0
15 22.03 В 2 10 км 9/6 600 м
[Cb calv Cc]
+3.7 -1.9 67 +1 +1 тепло 1014.7 980.3 +7.2 0.0
18 22.03 ЮВ 1 10 км 9/9 600 м
[Cb calv]
+2.4 -3.3 66 +1 +1 тепло 1015.3 980.7
21 22.03 ЮВ 1 10 км 9/9 600 м
[Cb calv]
+1.7 -3.8 67 0 0 тепло 1015.5 980.8
00 23.03 З 2 10 км 3/0
[Ci fib]
+0.9 -1.9 82 -3 -3 тепло 1016.9 982.1
03 23.03 З 2 10 км 3/1 600 м
[Sc Ci fib]
-0.0 -2.4 84 -4 -3 по сезону 1017.9 983.0 -0.3 29
06 23.03 З 3 20 км 4/4 1000 м
[Cb cap]
+3.3 -3.8 60 -0 +3 тепло 1019.0 984.4
09 23.03 СЗ 1 50 км 9/9 1000 м
[Sc]
+2.9 -4.1 60 +2 +3 тепло 1019.8 985.1
12 23.03 СЗ 2 50 км 8/8 1000 м
[Sc]
+3.9 -4.8 53 +2 +2 по сезону 1020.0 985.4
15 23.03 штиль 0 10 км 10/0
[Ac trans Cs]
+2.3 -5.3 57 +2 +2 тепло 1020.8 986.0 +4.3
18 23.03 В 1 10 км 8/0
[Ci fib]
+0.8 -4.4 68 -1 -1 по сезону 1021.5 986.5
21 23.03 ЮВ 1 10 км 8/8 1000 м
[Sc]
+0.3 -4.2 72 -1 -1 тепло 1021.8 986.7
00 24.03 ЮВ 1 10 км 8/8 1000 м
[Sc]
-0.2 -4.3 74 -2 -2 тепло 1021.8 986.7
03 24.03 ЮВ 2 н/о н/о -1.2 -4.2 80 -5 -5 по сезону 1021.5 986.3 -1.6 27
06 24.03 ЮВ 3 10 км 10/0
[Cs]
+4.0 -4.3 55 +1 +5 тепло 1020.5 985.9
09 24.03 ЮВ 2 20 км 10/3 1000 м
[Sc Ac As]
+5.9 -3.5 51 +4 +6 тепло 1019.5 985.2
12 24.03 Ю 2 20 км 10/3 600 м
[Sc Ac und Cc]
+5.4 -3.1 54 +3 +4 по сезону 1018.5 984.2
15 24.03 З 3 10 км 10/8 600 м
[Cb calv Ac As]
+2.8 -1.9 71 -1 -1 по сезону 1018.3 983.7 +6.5
18 24.03 З 2 10 км 10/0
[Ac und Cc]
+0.5 -2.7 79 -3 -3 по сезону 1018.7 983.8
21 24.03 Ю 2 10 км 10/0
[Cc]
-0.8 -3.9 79 -4 -4 по сезону 1018.6 983.5
00 25.03 ЮВ 1 10 км 10/0
[Cs]
-2.0 -4.3 84 -4 -4 по сезону 1018.1 982.9
03 25.03 ЮВ 2 10 км 10/0
[Cs]
-2.0 -4.4 84 -6 -5 по сезону 1016.9 981.7 -3.1 25
06 25.03 ЮВ 4 10 км 10/0
[Ac trans Cs]
+3.1 -3.4 62 -1 +2 по сезону 1013.9 979.4
09 25.03 ЮВ 6-14
{14}
20 км {ливн. осадки} 10/8 600 м
[Sc Cs]
+5.6 -1.1 62 +1 +2 по сезону 1010.7 976.7
12 25.03 ЮВ 7-14
{17}
20 км {ливн. осадки} 10/10 600 м
[Cb calv]
+4.8 -2.6 59 -0 -0 по сезону 1007.0 973.0
15 25.03 ЮВ 7-14
{16}
10 км слаб. ливневой дождь 10/10 600 м
[Cb cap]
+3.5 -0.5 75 -2 -2 по сезону 1005.5 971.4 +5.7 0.4
18 25.03 Ю 2
{14}
2000 м снег {ливн. осадки} 10/0 300 м
[As op]
+0.6 -0.9 90 -3 -3 по сезону 1005.3 970.8
21 25.03 ЮВ 2 10 км {снег} 8/8 600 м
[Sc]
+0.5 -1.0 90 -3 -3 по сезону 1004.5 970.1

 

Местоположение метеостанции Екатеринбург (Свердловская область, Россия): широта 56.83 долгота 60.63 высота над уровнем моря 281 м.

В архиве по умолчанию представлена погода в Екатеринбурге за последнюю неделю. Архивные данные за месяц целиком и за предыдущие месяцы, начиная с января 2011 года, Вы можете получить, выбрав интересующий диапазон дат из раскрывающегося списка и нажав кнопку "Ввод!".


*Определитесь, кто Вы:
робот инопланетянин человек

Внимание! Время в таблицах - всемирное. Для получения местного времени необходимо прибавить поправку, которая равна 5 ч.

Смотрите также архив погоды в соседних городах и на ближайших метеорологических станциях:

Погода в Екатеринбурге (Бот.сад) (Свердловская область, Россия) (5 км)
Погода в Верхнем Дуброво (Свердловская область, Россия) (29 км)
Погода в Сысерти (Свердловская область, Россия) (38 км)
Погода в Ревде (Свердловская область, Россия) (40 км)
Погода в Мариинске (Свердловская область, Россия) (52 км)
Погода в Невьянске (Свердловская область, Россия) (78 км)
Погода в Верхнем Уфалее (Челябинская область, Россия) (86 км)
Погода в Каменск-Уральском (Свердловская область, Россия) (88 км)
Погода в Бисерти (Свердловская область, Россия) (95 км)
Погода в Артемовском (Свердловская область, Россия) (98 км)

Пояснения к столбцам:

Ветер - указаны скорость ветра в м/с - средняя за 10 мин, порывы в срок и между сроками (в фигурных скобках) и направление, откуда дует ветер: С - северный, СВ - северо-восточный, В - восточный, ЮВ - юго-восточный, Ю - южный, ЮЗ - юго-западный, З - западный, СЗ - северо-западный.
Видимость - горизонтальная дальность видимости в метрах или километрах. При видимости от 1 до 10 км при отсутствии осадков обычно наблюдается дымка, при ухудшении видимости до 1 км и менее - туман. В сухую погоду видимость может ухудшаться дымом, пылью или мглою.
Явления - указаны атмосферные явления, наблюдавшиеся в срок или в последний час перед сроком; фигурными скобками обозначены явления, наблюдавшиеся между сроками (за 1-3 часа до срока); квадратными скобками обозначены град или гололедные отложения с указанием их диаметра в мм.
Облачность - указаны через наклонную черту общая и нижняя облачность в баллах и высота нижней границы облаков в метрах; квадратными скобками обозначены формы облаков: Ci - перистые, Cs - перисто-слоистые, Cc - перисто-кучевые, Ac - высококучевые, As - высокослоистые, Sc - слоисто-кучевые, Ns - слоисто-дождевые, Cu - кучевые, Cb - кучево-дождевые. Подробнее классификацию облаков см. в Атласе облаков (PDF).
T - Температура воздуха - температура, измеренная на высоте 2 м над землей.
Td - Температура точки росы - температура, при понижении до которой содержащийся в воздухе водяной пар достигнет насыщения.
f - Относительная влажность воздуха - влажноcть воздуха, измеренная на высоте 2 м над землей.
Te - Эффективная температура - температура, которую ощущает одетый по сезону человек в тени. Характеристика душности погоды. При расчете учитывается влияние влажности воздуха и скорости ветра на теплоощущения человека.
Tes - Эффективная температура на солнце - температура, которую ощущает человек, с поправкой на солнечный нагрев. Характеристика знойности погоды. Зависит от высоты солнца над горизонтом, облачности и скорости ветра. Ночью, в пасмурную погоду, а также при ветре 12 м/с и более поправка равна нулю.
P - Атмосферное давление - приведенное к уровню моря атмосферное давление.
Po - Атмосферное давление - измеренное на уровне метеостанции атмосферное давление.
Tmin - Минимальная температура - минимум температуры воздуха на высоте 2 м над землей.
Tmax - Максимальная температура - максимум температуры воздуха на высоте 2 м над землей.
R - Количество осадков - Количество выпавших осадков за период времени, мм. При наведении курсора мыши на число - период времени, за который выпало указанное количество осадков.
R24 - Количество осадков - Количество выпавших осадков за 24 часа, мм.
S - Снежный покров - Высота снежного покрова, см. При наведении курсора мыши на число - состояние снежного покрова и степень покрытия местности в баллах.